Dewpoint
7 8 9 9 8 7 6 6 1 -8 -10 -10 -9 -8 -8 -11 -14 -6 -1 -1 -5 -11 -13 -3 -4 -5 -6 -7 -8 -9 -8 -8 -9 -7 -6 -5 -2 2 6 6 8 10 12 13 11
3 3 6 8 8 7 6 6 6 1 -8 -10 -10 -9 -7 -11 -14 -3 -0 -5 -8 -12 -8 -7 -8 -8 -9 -8 -9 -8 -7 -8 -9 -8 -7 -5 -1 3 6 3 6 12 13 12 12
-2 -2 2 4 5 3 5 5 7 6 -0 -8 -10 -9 -7 -10 -4 -6 -0 -6 -9 -12 -5 -9 -8 -10 -9 -9 -8 -8 -6 -8 -8 -6 -5 -4 -1 3 4 7 8 9 12 12 12
-22 -16 -7 0 3 2 2 -1 4 5 5 -2 -10 -10 -8 -10 -5 1 -4 -6 -10 -14 -5 -6 -8 -8 -8 -8 -7 -6 -7 -8 -7 -6 -3 1 -0 3 4 8 10 12 11 12 11
-26 -27 -21 -14 -3 1 3 1 -4 4 3 4 -5 -9 -9 -0 -5 -7 -5 -7 -12 -13 -4 -4 -5 -5 -7 -9 -7 -6 -6 -5 -3 -2 1 3 2 5 9 10 12 11 11 11 11
-27 -27 -28 -25 -23 -9 -2 3 -2 1 3 3 1 -9 0 -0 -6 -6 -1 -11 -4 -4 -4 -5 -5 -5 -5 -7 -7 -5 -6 -2 -1 -0 1 2 3 5 8 8 10 10 11 10 10
-25 -24 -27 -28 -28 -26 -13 -2 1 -2 -0 2 5 -5 1 -3 -4 -1 -3 -4 -5 -4 -5 -5 -4 -4 -4 -6 -6 -6 -5 -2 -2 -1 0 2 6 4 7 7 6 8 11 11 10
-13 -22 -25 -25 -27 -29 -19 -6 -2 0 -1 1 5 -5 0 -4 -7 -2 -1 -4 -4 -4 -4 -4 -4 -4 -4 -5 -6 -7 -6 0 -3 -1 0 4 9 4 6 6 6 5 9 10 10
-4 -12 -20 -25 -26 -28 -28 -12 -8 -3 -2 -1 3 2 -1 -3 -9 -7 -0 -4 -5 -4 -4 -4 -3 -4 -4 -5 -6 -6 -3 -0 -1 -3 2 -0 6 4 4 4 5 4 7 9 8
2 -1 -10 -22 -24 -27 -28 -16 -8 -7 -1 -2 3 3 -1 -6 -9 -10 -1 -3 -3 -3 -3 -2 -3 -3 -5 -7 -4 -6 -5 -5 0 6 -2 -1 1 3 4 2 4 3 5 8 6
3 2 0 -12 -21 -25 -26 3 4 6 5 -3 -0 -5 -9 -7 -2 -4 -4 -2 -3 -3 -2 -2 -1 -1 -5 -8 -9 -6 -6 -4 -2 -6 -5 -3 -3 1 3 4 2 4 4 6 7
3 2 2 -1 -11 -21 -13 2 2 5 3 -1 -1 -1 -1 -3 -2 -5 -2 -3 -2 -1 -3 -1 0 -4 -5 -6 -6 -5 -5 -6 -6 -6 -5 -5 -2 -5 1 3 2 2 3 3 4
3 2 2 2 -2 -11 1 2 4 6 2 -4 -3 -2 -3 -3 -3 -6 -3 -4 -3 -2 -3 -1 -3 -4 -4 -5 -4 -4 -3 -1 -4 -3 -4 -5 -4 -5 -3 1 2 2 2 4 4
1 3 2 2 -3 1 3 3 5 5 1 -6 -1 -2 -3 -3 -2 -5 -5 -5 -4 -3 -4 -3 -4 -3 -4 -4 -4 -2 -5 -4 -3 -3 -1 -2 1 2 -3 0 2 2 2 2 3
-3 2 2 1 4 4 5 5 6 6 -2 -6 -4 -1 -2 -3 -6 -5 -6 -5 -4 -4 -4 -2 -3 -2 -2 -4 -4 -3 -3 -3 -2 -1 -2 -3 -4 -0 -5 -3 -1 1 2 1 2
-2 -2 2 2 2 4 6 7 7 4 -1 -6 -2 -0 0 -2 -6 -6 -6 -5 -6 -5 -5 -4 -5 -5 -4 -5 -4 -4 -2 -2 -1 -1 3 -3 -3 1 -4 -7 -8 -3 0 1 1
-2 -4 1 2 2 3 6 7 3 -1 -9 -8 -2 -1 -0 -1 -4 -5 -4 -4 -4 -2 -1 -3 -3 -4 -5 -2 -3 -2 -0 3 3 3 3 1 -2 -3 2 -7 -7 -6 -5 -1 1
-1 -4 -0 2 1 4 6 7 -1 -11 -8 -5 -4 -1 -0 -3 -2 -3 -3 -3 -5 -4 -2 -1 -0 -3 -4 -3 -2 -1 -1 3 9 3 1 -0 -2 -3 -6 -6 -6 -5 -3 -3 -1
-1 -1 1 1 1 3 4 6 -2 -9 -13 -8 -5 0 1 -3 -4 -3 -3 -4 -5 -6 -3 -1 -2 -6 -5 -5 -4 -2 0 -2 3 1 2 -1 -4 -7 -8 -8 -7 -6 -3 -1 -1
0 1 0 0 1 3 4 5 -4 -11 -13 -8 -6 -3 0 -2 -4 -3 -3 -6 -6 -6 -7 -4 -1 -5 -4 -3 -3 -2 -2 1 1 4 6 -2 -3 -4 -5 -7 -8 -8 -6 -3 -0
1 1 -0 0 1 3 3 2 -1 -10 -12 -9 -5 -6 -2 -0 -4 -3 -3 -6 -7 -6 -7 -5 -3 -2 -1 0 -1 -1 1 -1 -1 1 5 4 -1 -4 -6 -7 -7 -6 -6 -5 -4
1 2 -0 -1 2 2 2 -1 -3 -7 -8 -9 -5 -4 -5 -0 -2 -5 -3 -5 -7 -7 -3 -5 -2 2 1 -2 -4 -3 -2 -1 2 2 1 3 2 -5 -6 -7 -6 -5 -6 -5 -3
1 1 0 1 2 3 -1 -1 -3 -4 -6 -7 -3 -1 -2 -1 1 -2 -4 -4 -5 -5 -3 -4 -2 2 0 -1 -2 -1 -2 -3 -1 -1 2 8 3 -5 -6 -6 -6 -6 -6 -5 -3
1 2 2 2 -1 -2 -2 -2 -4 -3 -4 -8 -4 -3 -1 2 -0 0 -2 -3 -3 -4 -5 -3 -3 -0 2 1 -2 -1 -3 -4 -2 4 2 1 -2 -4 -5 -5 -7 -6 -5 -4 -4
1 2 2 2 2 -0 -3 -5 -5 -4 -3 -4 -5 -3 -4 0 -0 0 -1 0 -0 -2 -2 -1 -1 -2 -3 -3 -4 -4 -3 -4 -3 -3 1 -1 -3 -4 -5 -6 -8 -3 -4 -5 -3
0 -1 -0 -1 0 -1 -2 -3 -6 -6 -6 -4 -3 -2 -2 -2 -2 0 -0 0 -0 -2 -0 -2 0 -1 -2 -3 -4 -4 -6 -7 -7 -5 -4 -5 -4 -6 -8 -8 -8 -6 -4 -3 -1
-0 -2 -2 -2 1 0 -0 -3 -6 -7 -7 -7 -6 -4 -1 -3 1 2 2 2 1 2 2 -1 2 1 3 -2 -2 2 -3 -5 -6 -7 -4 -2 -4 -6 -6 -7 -6 -4 -4 -0 2
Wind_Speed
19 19 19 18 17 15 15 15 14 16 16 18 18 19 20 20 15 6 3 8 7 5 5 5 7 8 8 12 9 7 10 7 0 6 4 5 5 3 5 11 3 0 5 7 10
22 21 21 21 20 20 17 16 16 15 17 17 18 19 20 20 15 11 10 8 5 5 6 8 8 9 14 9 6 10 11 4 7 10 10 10 10 6 6 14 11 8 8 8 11
25 25 24 22 22 24 22 20 17 18 16 18 18 18 18 18 11 6 12 7 6 7 7 9 8 9 16 5 7 4 9 10 8 9 10 7 16 7 9 8 40 2 10 15 10
21 22 25 25 24 22 22 22 20 19 19 18 18 19 16 11 4 3 7 7 7 9 7 8 9 11 15 8 3 8 10 9 10 7 6 2 5 10 7 7 5 7 11 15 11
19 19 19 22 25 25 21 22 20 19 20 19 19 18 17 8 15 12 9 7 9 11 10 10 10 12 13 4 4 9 8 8 6 2 4 1 5 1 6 10 12 10 11 10 12
20 20 20 19 20 23 22 21 21 19 19 20 18 17 11 16 6 10 9 8 10 13 10 10 8 6 12 10 8 7 11 4 4 2 8 10 8 10 7 9 9 8 10 9 10
21 20 20 20 19 19 21 20 20 21 20 20 18 18 13 22 6 8 9 9 11 13 10 9 6 9 6 12 5 12 12 8 7 7 11 4 19 11 13 11 8 10 9 10 13
22 21 21 20 19 18 18 19 20 20 21 20 18 13 11 10 8 13 12 10 11 13 10 7 8 10 13 9 13 13 14 5 7 9 6 17 13 14 16 14 10 9 10 9 11
22 22 22 21 19 18 19 18 18 20 21 20 15 6 10 13 13 16 16 12 14 12 10 9 8 14 11 13 14 13 5 7 16 8 14 5 14 15 13 12 11 10 11 13 20
20 21 22 21 18 18 19 17 16 17 18 15 10 8 15 7 8 14 19 15 16 14 12 13 13 12 14 13 13 9 12 12 6 13 9 9 13 11 13 10 13 14 14 16 23
20 20 19 20 17 16 16 11 9 6 12 16 5 12 1 6 7 13 20 18 16 17 16 18 12 14 17 14 16 9 10 10 5 5 4 11 8 5 15 12 12 15 15 18 19
19 20 19 18 15 14 11 6 7 6 13 19 26 26 21 4 6 17 20 19 20 17 18 12 13 15 4 8 8 10 10 12 2 1 7 10 13 3 14 13 15 16 18 17 19
19 19 19 15 13 16 11 10 8 6 9 20 26 30 24 24 19 21 26 27 20 19 18 15 3 6 7 9 11 10 13 3 8 7 10 12 13 9 9 13 14 16 18 20 21
26 18 18 12 11 11 13 9 8 4 7 13 9 12 24 20 17 25 30 29 15 20 18 14 13 7 11 11 12 12 12 4 9 11 6 14 2 19 14 13 14 17 19 21 24
25 22 17 15 7 7 2 7 8 2 7 2 15 3 10 23 12 30 30 32 23 19 14 16 14 12 13 12 10 10 1 6 10 12 14 11 8 13 10 14 18 18 20 21 24
20 30 20 17 18 14 4 7 10 6 15 6 8 10 12 25 25 17 33 33 27 19 16 17 16 14 16 12 6 8 6 10 10 11 9 13 10 14 8 13 13 21 24 24 24
22 24 25 18 19 11 8 8 7 13 3 13 9 11 15 15 22 19 27 26 22 21 21 19 15 15 9 8 11 10 13 9 9 6 10 7 5 3 15 5 2 2 10 25 27
23 21 29 23 21 16 15 8 17 15 29 4 3 12 15 15 23 20 23 24 27 24 14 16 18 20 13 16 14 15 16 7 5 7 6 5 6 4 9 3 4 7 6 10 20
22 21 27 28 27 21 11 14 24 28 12 28 5 11 14 15 15 23 26 26 28 25 22 16 19 13 19 14 18 18 18 13 4 8 5 7 7 6 6 3 4 4 3 8 13
27 24 33 31 26 22 6 15 26 26 25 13 27 12 14 16 18 23 24 25 26 28 20 13 10 12 12 11 16 13 13 10 9 6 9 11 10 1 6 5 4 2 2 3 1
30 16 18 32 28 17 13 20 31 34 25 24 18 24 14 14 20 20 16 12 26 25 21 18 13 11 12 14 16 13 9 9 6 8 6 7 5 5 3 2 4 2 2 2 2
31 9 18 38 16 14 15 35 38 29 40 20 22 19 19 11 17 21 22 20 12 23 25 22 11 10 16 18 22 15 19 17 10 12 7 7 12 14 7 9 4 9 5 3 3
20 14 19 39 12 16 28 42 33 30 27 25 19 16 13 14 13 17 17 15 12 20 21 20 12 12 14 10 11 12 13 11 13 9 12 9 7 4 0 5 7 10 10 6 8
18 8 14 38 38 25 32 38 36 40 32 30 21 20 18 13 14 5 18 10 10 14 21 20 16 19 14 18 15 18 18 17 16 9 12 13 17 11 12 12 13 13 10 7 8
26 9 14 14 22 32 33 22 34 36 35 33 25 26 24 19 16 15 7 9 3 10 5 14 22 21 22 20 15 20 20 21 21 18 17 15 16 13 12 9 11 6 1 6 8
16 14 29 19 34 30 27 32 32 33 31 31 27 26 22 20 15 14 8 3 6 12 13 17 16 21 23 21 18 18 18 19 19 18 19 18 19 13 14 15 12 12 8 10 9
27 36 32 23 27 23 25 33 39 31 37 40 31 21 22 19 8 7 3 4 3 7 11 17 13 17 16 17 18 17 18 20 18 18 16 17 15 15 14 12 10 14 10 10 10
Wind_Direction
274 287 291 299 297 299 307 316 323 323 324 325 327 330 332 330 323 287 248 243 256 239 197 192 206 221 226 247 254 267 253 269 209 293 74 61 322 193 284 285 153 64 18 97 179
277 280 278 280 292 293 294 300 310 319 321 322 323 327 332 329 321 258 242 256 253 209 173 205 216 214 228 244 232 251 285 12 4 350 333 354 339 17 247 232 218 144 115 130 157
277 279 278 281 281 287 291 292 299 309 315 318 320 324 330 331 318 238 223 257 241 200 199 222 236 215 254 249 219 251 278 353 331 20 340 328 339 317 286 332 329 121 144 142 147
276 276 277 277 280 283 288 292 290 298 307 313 316 320 328 325 317 245 222 256 229 191 210 211 211 225 252 230 189 273 295 317 336 312 287 159 218 297 23 21 34 89 134 136 141
276 279 279 279 278 279 280 285 291 287 295 304 313 322 331 282 268 263 247 246 206 186 199 208 233 243 252 248 247 247 304 323 0 226 271 299 254 136 53 82 92 103 123 126 140
274 276 280 282 283 280 280 283 286 285 286 293 306 314 316 275 275 263 232 217 194 191 207 223 261 289 293 273 281 354 302 306 320 173 255 270 163 229 116 111 96 114 132 169 164
272 272 274 280 285 288 283 280 284 283 281 286 301 309 282 255 278 239 213 194 195 199 216 225 251 262 315 254 246 278 270 196 236 241 267 322 339 113 135 123 112 122 138 130 139
274 271 274 275 280 287 284 282 284 281 280 286 297 301 261 262 240 218 206 209 209 202 215 236 254 269 268 290 261 245 249 203 286 215 261 110 284 129 143 142 138 126 139 128 135
273 271 270 272 278 284 288 287 287 285 282 287 299 257 264 246 244 213 200 204 204 207 222 247 258 255 259 245 243 216 271 259 237 216 209 205 238 121 145 163 137 134 137 136 138
276 275 272 267 272 281 292 298 300 292 284 276 253 258 238 244 224 203 197 195 201 210 223 233 235 242 224 243 248 245 203 227 134 267 223 267 345 133 163 165 152 149 145 147 158
272 275 277 270 264 270 286 318 288 246 232 231 294 229 237 208 208 197 194 193 206 207 219 204 228 233 245 225 269 316 285 261 284 62 289 273 269 180 157 172 169 162 165 167 178
261 271 277 275 264 258 264 257 299 293 294 265 256 249 241 248 230 204 188 194 201 216 220 223 234 253 340 287 252 251 250 260 228 81 280 264 279 152 150 183 182 184 177 183 179
257 257 271 280 268 249 239 243 268 301 267 281 243 239 230 227 223 210 193 203 202 219 224 233 290 101 225 206 231 231 255 334 274 267 249 269 258 180 174 172 190 185 194 186 190
243 248 255 275 284 252 245 255 239 221 271 260 204 239 219 210 221 212 204 204 223 225 227 233 237 206 215 228 220 228 220 309 295 274 283 306 179 295 175 191 193 195 195 193 193
241 246 236 242 255 207 137 211 192 194 279 9 166 186 204 199 178 200 201 209 221 215 223 223 231 212 235 225 204 261 205 263 283 273 274 232 251 174 206 191 193 201 201 200 194
248 236 232 230 232 184 184 152 153 231 241 220 169 196 202 210 229 185 193 208 220 228 223 236 211 214 228 226 218 251 238 231 246 252 263 241 265 184 203 209 208 185 199 205 198
235 239 228 215 217 235 200 195 209 228 185 228 205 195 210 193 217 211 189 198 206 214 214 218 213 220 243 217 206 215 227 233 223 226 237 283 274 193 237 98 292 243 208 201 205
229 237 225 220 206 201 225 218 223 225 229 81 233 198 215 205 204 190 193 199 210 206 203 211 216 212 182 233 204 212 227 227 198 229 235 275 244 315 47 33 283 275 263 233 211
222 229 225 218 204 215 265 207 221 221 204 225 202 235 213 211 211 199 208 204 202 209 221 205 227 197 207 213 241 203 219 245 262 266 285 274 217 242 146 202 238 252 251 222 220
212 218 226 212 200 218 228 238 238 233 239 231 236 224 222 207 210 202 209 204 208 210 218 222 233 181 180 228 228 268 204 214 235 234 243 248 255 154 213 174 145 226 75 86 160
205 219 225 208 191 217 218 229 230 244 239 224 235 236 239 215 212 214 222 210 209 202 212 226 218 181 167 205 203 210 222 223 233 247 259 260 271 354 358 182 284 209 256 318 14
196 210 188 187 192 202 219 220 232 230 246 232 243 251 237 230 221 228 219 207 220 213 202 219 209 205 211 213 230 217 214 215 227 234 225 265 275 309 259 263 286 249 195 281 291
197 187 188 177 196 195 218 229 224 232 245 229 225 244 234 234 239 223 221 243 206 225 200 213 222 220 216 178 220 230 234 233 223 249 257 225 258 311 179 241 202 229 260 239 242
184 172 179 194 211 201 209 228 217 229 241 238 219 233 236 232 235 255 217 206 240 243 212 211 212 224 222 206 205 212 237 229 232 223 240 256 271 267 205 218 236 245 219 254 251
188 191 184 184 201 214 213 216 216 209 222 241 234 231 229 230 235 218 240 165 199 230 245 223 217 225 232 246 229 223 215 225 232 233 241 253 259 247 256 275 297 39 355 234 247
178 191 187 187 202 212 217 217 223 216 206 217 237 233 222 230 234 226 180 180 171 204 227 211 224 229 236 237 248 254 254 244 243 230 244 248 257 267 283 273 261 275 247 240 211
190 199 187 215 194 210 215 217 219 214 217 212 221 237 237 234 134 114 76 85 342 305 217 220 221 228 238 237 240 238 243 254 249 251 239 248 261 265 270 269 262 254 227 225 186
Height
1544 1544 1543 1540 1538 1537 1535 1533 1530 1529 1526 1524 1521 1518 1515 1512 1510 1507 1508 1508 1506 1504 1504 1506 1506 1506 1505 1501 1500 1496 1484 1477 1473 1473 1475 1476 1478 1478 1480 1476 1476 1482 1487 1486 1486
1539 1539 1539 1538 1537 1535 1533 1531 1530 1526 1524 1522 1519 1517 1513 1510 1507 1505 1506 1505 1504 1503 1504 1506 1505 1504 1502 1497 1495 1491 1476 1473 1472 1472 1473 1476 1475 1472 1478 1471 1475 1484 1485 1488 1490
1536 1535 1535 1534 1534 1533 1531 1530 1528 1525 1521 1520 1517 1515 1512 1509 1505 1502 1503 1503 1502 1502 1504 1505 1504 1503 1496 1493 1490 1483 1481 1475 1475 1481 1482 1479 1479 1477 1476 1473 1481 1479 1488 1487 1492
1531 1531 1531 1531 1530 1529 1528 1527 1526 1523 1521 1517 1515 1513 1511 1509 1504 1502 1501 1501 1501 1501 1504 1504 1503 1500 1492 1488 1487 1487 1479 1478 1477 1482 1481 1479 1481 1479 1482 1488 1487 1488 1488 1488 1492
1527 1527 1526 1526 1526 1525 1524 1524 1522 1520 1518 1516 1514 1512 1510 1510 1504 1499 1500 1500 1500 1501 1504 1503 1501 1496 1489 1486 1485 1483 1481 1480 1481 1481 1479 1480 1476 1479 1482 1489 1492 1493 1491 1493 1495
1523 1523 1523 1522 1521 1521 1520 1520 1519 1517 1515 1513 1512 1510 1511 1509 1500 1499 1498 1498 1500 1502 1503 1502 1498 1496 1492 1487 1485 1482 1482 1480 1481 1478 1478 1477 1472 1478 1482 1485 1489 1491 1492 1494 1498
1519 1519 1518 1519 1518 1517 1517 1516 1516 1514 1512 1510 1509 1508 1505 1499 1498 1499 1497 1498 1500 1501 1501 1501 1500 1498 1491 1486 1485 1483 1480 1475 1479 1476 1474 1476 1482 1471 1482 1486 1489 1492 1496 1499 1501
1514 1515 1515 1514 1515 1514 1513 1512 1512 1510 1509 1508 1507 1505 1500 1494 1494 1496 1497 1498 1498 1500 1501 1500 1500 1498 1494 1487 1484 1478 1471 1488 1471 1470 1470 1483 1510 1474 1480 1485 1489 1491 1496 1500 1502
1510 1510 1510 1511 1512 1512 1511 1509 1508 1507 1505 1505 1505 1504 1494 1487 1488 1490 1494 1496 1498 1498 1499 1499 1498 1494 1488 1485 1478 1470 1476 1483 1476 1466 1471 1466 1476 1468 1477 1481 1487 1490 1495 1499 1502
1507 1506 1506 1506 1508 1509 1508 1508 1505 1503 1502 1501 1502 1506 1488 1486 1486 1488 1490 1494 1496 1497 1498 1497 1494 1487 1482 1476 1478 1468 1466 1464 1470 1488 1465 1463 1468 1466 1473 1478 1483 1489 1494 1499 1502
1503 1504 1502 1502 1504 1505 1506 1509 1507 1503 1501 1493 1489 1483 1483 1483 1484 1486 1489 1491 1493 1493 1490 1487 1485 1480 1470 1466 1465 1464 1462 1465 1467 1459 1466 1462 1458 1474 1468 1475 1480 1485 1491 1496 1500
1499 1501 1500 1499 1501 1502 1503 1507 1506 1505 1496 1489 1485 1483 1482 1483 1481 1482 1486 1489 1489 1484 1483 1480 1482 1469 1468 1470 1471 1470 1468 1463 1458 1460 1466 1460 1466 1455 1462 1470 1475 1480 1484 1491 1495
1495 1496 1498 1498 1498 1499 1500 1505 1504 1503 1497 1476 1473 1473 1474 1480 1476 1475 1480 1481 1479 1480 1474 1476 1466 1468 1475 1473 1474 1471 1467 1472 1466 1465 1461 1460 1460 1455 1458 1465 1471 1475 1480 1485 1490
1491 1492 1495 1497 1501 1498 1499 1501 1502 1501 1491 1466 1462 1461 1465 1470 1469 1469 1472 1475 1473 1473 1470 1470 1466 1471 1472 1469 1470 1470 1461 1466 1468 1468 1470 1462 1482 1475 1453 1461 1466 1470 1474 1478 1483
1485 1489 1491 1495 1494 1498 1498 1498 1500 1503 1491 1446 1449 1456 1457 1458 1450 1457 1463 1470 1466 1466 1468 1468 1465 1470 1471 1467 1465 1468 1466 1468 1467 1465 1460 1455 1460 1459 1448 1453 1455 1462 1468 1471 1476
1481 1483 1487 1490 1493 1492 1498 1498 1500 1498 1474 1444 1447 1450 1453 1455 1448 1447 1457 1465 1464 1462 1463 1460 1459 1462 1462 1462 1465 1464 1470 1469 1466 1462 1475 1456 1452 1473 1446 1445 1444 1449 1458 1465 1470
1476 1478 1481 1486 1489 1495 1493 1495 1491 1476 1445 1440 1441 1442 1444 1443 1445 1442 1448 1454 1456 1465 1461 1461 1458 1460 1462 1467 1466 1468 1469 1480 1481 1476 1477 1464 1457 1448 1461 1442 1446 1449 1451 1456 1463
1471 1474 1475 1480 1485 1488 1489 1492 1470 1437 1443 1434 1436 1437 1438 1435 1441 1441 1442 1448 1448 1448 1451 1460 1466 1455 1456 1462 1461 1465 1463 1472 1506 1477 1465 1459 1462 1448 1440 1446 1450 1451 1452 1454 1457
1466 1468 1469 1473 1480 1484 1486 1476 1435 1436 1428 1436 1434 1438 1434 1430 1434 1437 1436 1436 1437 1438 1449 1450 1451 1440 1449 1455 1455 1455 1463 1453 1473 1464 1472 1454 1442 1437 1440 1445 1448 1449 1451 1451 1454
1458 1463 1460 1467 1475 1480 1480 1460 1438 1436 1434 1433 1437 1428 1428 1428 1434 1431 1430 1424 1429 1434 1436 1438 1451 1441 1448 1452 1451 1452 1449 1467 1462 1481 1487 1455 1448 1446 1446 1445 1447 1448 1448 1451 1454
1453 1454 1452 1461 1472 1476 1462 1450 1441 1436 1431 1430 1430 1427 1424 1421 1427 1427 1428 1420 1423 1428 1434 1436 1445 1445 1447 1453 1451 1457 1455 1453 1451 1460 1477 1471 1453 1441 1439 1441 1445 1446 1451 1451 1452
1442 1440 1444 1456 1463 1460 1459 1440 1441 1432 1434 1430 1427 1423 1420 1420 1424 1424 1426 1420 1422 1424 1434 1434 1438 1448 1447 1440 1441 1441 1446 1448 1462 1463 1458 1464 1458 1436 1438 1440 1444 1447 1450 1452 1453
1428 1435 1440 1446 1444 1438 1443 1431 1435 1435 1430 1427 1425 1427 1420 1421 1429 1421 1422 1423 1424 1423 1426 1433 1439 1450 1444 1444 1442 1443 1438 1437 1441 1447 1458 1473 1461 1437 1439 1443 1444 1446 1447 1449 1453
1420 1423 1428 1432 1429 1429 1425 1421 1426 1435 1430 1426 1424 1427 1425 1423 1420 1418 1420 1424 1425 1425 1425 1430 1432 1439 1442 1438 1436 1445 1441 1439 1443 1456 1458 1453 1443 1434 1434 1436 1437 1439 1440 1447 1449
1400 1399 1399 1404 1412 1405 1407 1405 1414 1417 1425 1428 1423 1419 1421 1425 1420 1420 1420 1423 1428 1427 1427 1429 1432 1431 1429 1423 1424 1427 1430 1433 1437 1438 1447 1442 1436 1430 1429 1430 1433 1438 1442 1445 1448
1380 1383 1393 1391 1407 1407 1405 1403 1404 1413 1416 1418 1421 1417 1416 1418 1416 1419 1419 1421 1424 1426 1427 1425 1429 1429 1431 1424 1422 1426 1423 1423 1424 1427 1430 1431 1430 1425 1427 1429 1431 1435 1439 1442 1445
1367 1380 1385 1389 1395 1398 1394 1390 1396 1407 1407 1412 1418 1420 1419 1415 1418 1426 1428 1427 1427 1428 1426 1424 1428 1430 1435 1424 1424 1432 1428 1424 1421 1420 1424 1431 1425 1424 1423 1424 1427 1432 1434 1440 1443